Home > Weather > Maintal > Past weeks

Flag for Germany Past Weather in Maintal, Hesse, Germany — Yesterday and Last 2 Weeks

Now
63 °F

Fog.


Feels Like: 63 °F
Forecast: 62 / 75 °F
Wind: 2 mph from North

Location: Frankfurt-M-Flughafen Airport

Current Time: Aug 28, 2016 at 7:09:20 AM

Latest Report: Aug 28, 2016 at 6:20 AM


Visibility: N/A

Pressure: 29.95 "Hg

Humidity: 94%

Dew Point: 61 °F

Location of MaintalLocation

Past Weather in Maintal — Graph

°F

Maintal Temperature Yesterday

Maximum temperature yesterday: 95 °F (at 3:20 PM)
Minimum temperature yesterday: 68 °F (at 4:50 AM)
Average temperature yesterday: 81 °F

High & Low Weather Summary for the Past Weeks

 TemperatureHumidityPressure
High95 °F (Aug 27, 3:20 PM)100% (Aug 14, 3:50 AM)30.39 "Hg (Aug 14, 3:50 AM)
Low52 °F (Aug 23, 6:20 AM)26% (Aug 27, 5:20 PM)29.80 "Hg (Aug 18, 1:50 PM)
Average70 °F65%30.07 "Hg
* Reported Aug 13 5:20 AM — Aug 28 5:50 AM, Maintal, Weather by CustomWeather, © 2016

Note: Actual official high and low records may vary slightly from our data, if they occured in-between our weather recording intervals... More about our weather records

Advertising

Maintal Weather History for the Previous 24 Hours

Scroll right to see more
 ConditionsComfort  
Time TempWeatherWind HumidityBarometerVisibility
5:50 AM
Sun, Aug 28
63 °FClear.2 mph94%29.95 "Hg10 mi
5:20 AM64 °FFog.2 mph94%29.95 "HgN/A
4:50 AM64 °FFog.5 mph88%29.95 "HgN/A
4:20 AM66 °FFog.1 mph88%29.95 "HgN/A
3:50 AM66 °FFog.1 mph88%29.95 "HgN/A
3:20 AM66 °FFog.2 mph88%29.95 "HgN/A
2:50 AM68 °FFog.3 mph83%29.95 "HgN/A
2:20 AM68 °FFog.5 mph83%29.95 "HgN/A
1:50 AM70 °FClear.3 mph78%29.98 "Hg10 mi
1:20 AM70 °FPassing clouds.3 mph83%29.98 "HgN/A
12:50 AM70 °FClear.1 mph83%29.98 "Hg10 mi
12:20 AM72 °FClear.2 mph78%29.98 "Hg10 mi
11:50 PM
Sat, Aug 27
73 °FPassing clouds.5 mph74%29.98 "HgN/A
11:20 PM75 °FPassing clouds.5 mph69%29.98 "HgN/A
10:50 PM75 °FPassing clouds.6 mph69%29.98 "HgN/A
10:20 PM75 °FClear.6 mph69%29.98 "Hg10 mi
9:50 PM79 °FPassing clouds.5 mph58%29.98 "HgN/A
9:20 PM81 °FPassing clouds.6 mph54%29.98 "HgN/A
8:50 PM86 °FPassing clouds.6 mph43%29.98 "HgN/A
8:20 PM90 °FPassing clouds.7 mph38%29.98 "HgN/A
7:50 PM91 °FPassing clouds.7 mph32%29.98 "HgN/A
7:20 PM93 °FPassing clouds.8 mph30%29.98 "HgN/A
6:50 PM93 °FPassing clouds.8 mph30%29.98 "HgN/A
6:20 PM93 °FPassing clouds.7 mph30%29.98 "HgN/A
5:50 PM95 °FPassing clouds.8 mph28%29.98 "HgN/A
5:20 PM95 °FPassing clouds.7 mph26%29.98 "HgN/A
4:50 PM95 °FPassing clouds.8 mph30%30.01 "HgN/A
4:20 PM95 °FPassing clouds.5 mph30%30.01 "HgN/A
3:50 PM95 °FPassing clouds.6 mph28%30.01 "HgN/A
3:20 PM95 °FSunny.5 mph28%30.01 "Hg10 mi
2:50 PM93 °FSunny.6 mph30%30.04 "Hg10 mi
2:20 PM93 °FPassing clouds.7 mph32%30.04 "HgN/A
1:50 PM91 °FSunny.3 mph36%30.04 "Hg10 mi
1:20 PM91 °FSunny.5 mph36%30.07 "Hg10 mi
12:50 PM90 °FPassing clouds.5 mph41%30.07 "HgN/A
12:20 PM88 °FPassing clouds.5 mph46%30.07 "HgN/A
11:50 AM86 °FPassing clouds.6 mph46%30.07 "HgN/A
11:20 AM86 °FPassing clouds.7 mph46%30.07 "HgN/A
10:50 AM82 °FPassing clouds.7 mph55%30.07 "HgN/A
10:20 AM81 °FPassing clouds.7 mph58%30.07 "HgN/A
9:50 AM79 °FSunny.7 mph61%30.07 "Hg10 mi
9:20 AM77 °FPassing clouds.8 mph65%30.07 "HgN/A
8:50 AM75 °FPassing clouds.5 mph69%30.07 "HgN/A
8:20 AM73 °FPassing clouds.6 mph74%30.07 "HgN/A
7:50 AM72 °FSunny.7 mph78%30.07 "Hg10 mi
7:20 AM70 °FPassing clouds.5 mph83%30.07 "HgN/A
Weather by CustomWeather, © 2016

See weather overviewHow to use our weather pages